Delta Virtual Airport Information Service

Baltimore Washington International Airport

ICAO: KBWI Country: United States
Latitude: 39.1754 Longitude: -76.6683
Latest Arrival : SWA3720 (A) (KTPA-KBWI) Latest Departure : SWA1316 (E) (KBWI-KDAL)


WX CaptureLIVE
Data provided by noaa.gov | Fetched at 21:50:58

METAR : KBWI 240154Z 00000KT 8SM FEW150 18/14 A3004 RMK AO2 SLP170 T01780139

TAF : KBWI 232320Z 2400/2506 16004KT P6SM FEW200 FM240600 19004KT 6SM BR SCT003 FM240900 19004KT 5SM BR SCT003 FM241300 23004KT P6SM BKN040 FM241800 32008KT P6SM SCT025 FM250200 35009KT P6SM BKN060


Runway Data for KBWI
Data provided by openaviationdata.com

Runway ID Mag Var Hdg Length Elevation Surface ILS Freq ILS Id ILS Slope
4 -11 44° 6002 ft 146 ft Asphalt -- -- --
10 -11 105° 10489 ft 146 ft Asphalt 109.7 IBAL 3
15L -11 155° 5000 ft 146 ft Asphalt 111.95 IUQC 3
15R -11 155° 9503 ft 146 ft Asphalt 111.7 IFND 3
22 -11 224° 6002 ft 146 ft Asphalt -- -- --
28 -11 285° 10489 ft 146 ft Asphalt 109.7 IOEH 3
33L -11 335° 9503 ft 146 ft Asphalt 111.7 IRUX 3
33R -11 335° 5000 ft 146 ft Asphalt 111.95 IBWI 3

Baltimore Washington International Airport, United States
Use only for reference purposes



Not for navigational purposes.